Tracking 29892 objects as of 21-Nov-2024
HD Live streaming from Space Station
objects crossing your sky now

STARLINK-30972

Track STARLINK-30972 now!
10-day predictions
STARLINK-30972 is classified as:


NORAD ID: 58721
Int'l Code: 2024-002S
Perigee: 558.2 km
Apogee: 559.5 km
Inclination: 53.2 °
Period: 95.7 minutes
Semi major axis: 6929 km
RCS: Unknown
Launch date: January 3, 2024
Source: United States (US)
Launch site: AIR FORCE WESTERN TEST RANGE (AFWTR)
Your satellite tracking list
Your tracking list is empty




NASA's NSSDC Master Catalog

Two Line Element Set (TLE):
1 58721U 24002S   24325.27236540  .00002279  00000-0  17853-3 0  9993
2 58721  53.1612 236.9155 0000924  80.8495 279.2599 15.04922523 49901
Source of the keplerian elements: AFSPC